JCSAT-2B

Last updated on Oct. 31, 2020, 5:53 a.m. UTC

1 41471U 16028A   20304.89607363 -.00000160  00000-0  00000-0 0  9993
2 41471   0.0126 247.6683 0002226 346.0820 282.4934  1.00269731 16502
UTC
Height (km)
Latitude
Longitude
Inclination
Orbital Period
UTC large
Height (km)
Speed (km/s)
/
Latitude / Longitude
Inclination (degrees)
Orbital Period (minutes)
Azimuth
Elevation
Range (km)
Doppler Factor
iOS Compass Heading
iOS Angle

Next 30 passes for location: Hong Kong

Rise time Rise Azimuth (degrees) Set time Set Azimuth (degrees) Duration Max altitude (degrees)

No matching passes for this satellites